DETAG EDDG-EDLW

Flight info

Callsign DETAG
Flight time 0h 29m
Altitude
Route
Aircraft C172

Departure

Time 2026-04-20 18:07
Airport Münster Osnabrück Airport (EDDG)

Arrival

Time 2026-04-20 18:36
Airport Dortmund Airport (EDLW)
Time Latitude Longitude Altitude Speed Heading
2026-04-20 17:56 52.13157 7.68239 160 ft 0 kts 271°
2026-04-20 17:59 52.13162 7.68214 160 ft 1 kts 321°
2026-04-20 17:59 52.13177 7.68241 160 ft 9 kts 77°
2026-04-20 17:59 52.13207 7.68346 160 ft 7 kts 13°
2026-04-20 18:00 52.13260 7.68363 160 ft 9 kts 51°
2026-04-20 18:00 52.13289 7.68483 160 ft 14 kts 71°
2026-04-20 18:00 52.13324 7.68650 160 ft 16 kts 69°
2026-04-20 18:00 52.13363 7.68834 160 ft 18 kts 71°
2026-04-20 18:01 52.13401 7.69018 160 ft 16 kts 71°
2026-04-20 18:01 52.13438 7.69192 160 ft 16 kts 72°
2026-04-20 18:01 52.13475 7.69365 160 ft 16 kts 71°
2026-04-20 18:01 52.13512 7.69540 160 ft 16 kts 70°
2026-04-20 18:02 52.13549 7.69714 159 ft 16 kts 71°
2026-04-20 18:02 52.13583 7.69880 159 ft 15 kts 71°
2026-04-20 18:02 52.13629 7.70008 159 ft 10 kts 38°
2026-04-20 18:02 52.13670 7.70033 159 ft 0 kts
2026-04-20 18:04 52.13673 7.70033 159 ft 2 kts
2026-04-20 18:04 52.13725 7.70019 159 ft 10 kts 343°
2026-04-20 18:05 52.13747 7.69826 160 ft 9 kts 251°
2026-04-20 18:05 52.13721 7.69703 160 ft 18 kts 253°
2026-04-20 18:05 52.13654 7.69384 160 ft 44 kts 244°
2026-04-20 18:06 52.13514 7.68720 200 ft 72 kts 251°
2026-04-20 18:06 52.13351 7.67931 338 ft 75 kts 251°
2026-04-20 18:06 52.13161 7.67117 503 ft 78 kts 247°
2026-04-20 18:06 52.12927 7.66324 680 ft 78 kts 243°
2026-04-20 18:07 52.12585 7.65589 794 ft 86 kts 221°
2026-04-20 18:07 52.12079 7.65039 929 ft 87 kts 204°
2026-04-20 18:07 52.11514 7.64640 1022 ft 90 kts 199°
2026-04-20 18:07 52.10862 7.64236 808 ft 113 kts 202°
2026-04-20 18:08 52.10190 7.63614 747 ft 105 kts 211°
2026-04-20 18:08 52.09588 7.63010 727 ft 101 kts 216°
2026-04-20 18:08 52.09056 7.62343 733 ft 94 kts 216°
2026-04-20 18:08 52.08517 7.61776 705 ft 93 kts 205°
2026-04-20 18:09 52.07919 7.61360 700 ft 93 kts 189°
2026-04-20 18:09 52.07312 7.61093 757 ft 89 kts 188°
2026-04-20 18:09 52.06701 7.61076 777 ft 87 kts 170°
2026-04-20 18:09 52.06093 7.61134 813 ft 88 kts 174°
2026-04-20 18:10 52.05467 7.61158 812 ft 91 kts 175°
2026-04-20 18:10 52.04842 7.61048 856 ft 90 kts 191°
2026-04-20 18:10 52.04258 7.60762 893 ft 89 kts 186°
2026-04-20 18:10 52.03655 7.60853 905 ft 86 kts 157°
2026-04-20 18:11 52.03103 7.61213 935 ft 84 kts 140°
2026-04-20 18:11 52.02571 7.61664 926 ft 88 kts 146°
2026-04-20 18:11 52.02013 7.62091 919 ft 89 kts 150°
2026-04-20 18:11 52.01459 7.62525 936 ft 90 kts 150°
2026-04-20 18:12 52.00897 7.62971 952 ft 92 kts 148°
2026-04-20 18:12 52.00311 7.63439 943 ft 94 kts 152°
2026-04-20 18:12 51.99723 7.63898 893 ft 92 kts 148°
2026-04-20 18:12 51.99162 7.64328 937 ft 87 kts 147°
2026-04-20 18:13 51.98598 7.64730 900 ft 86 kts 145°
2026-04-20 18:13 51.98054 7.65150 951 ft 88 kts 146°
2026-04-20 18:13 51.97498 7.65604 1027 ft 85 kts 144°
2026-04-20 18:13 51.96949 7.66019 1085 ft 86 kts 147°
2026-04-20 18:14 51.96402 7.66446 1139 ft 87 kts 147°
2026-04-20 18:14 51.95842 7.66850 1185 ft 89 kts 150°
2026-04-20 18:14 51.95199 7.67028 1180 ft 101 kts 180°
2026-04-20 18:14 51.94507 7.66714 1158 ft 105 kts 199°
2026-04-20 18:15 51.93830 7.66258 1187 ft 106 kts 200°
2026-04-20 18:15 51.93134 7.65815 1178 ft 108 kts 197°
2026-04-20 18:15 51.92421 7.65352 1152 ft 109 kts 200°
2026-04-20 18:15 51.91711 7.64880 1159 ft 110 kts 198°
2026-04-20 18:16 51.91000 7.64411 1190 ft 111 kts 200°
2026-04-20 18:16 51.90277 7.63919 1171 ft 112 kts 200°
2026-04-20 18:16 51.89569 7.63436 1172 ft 111 kts 200°
2026-04-20 18:16 51.88862 7.62948 1173 ft 110 kts 200°
2026-04-20 18:17 51.88160 7.62461 1170 ft 109 kts 200°
2026-04-20 18:17 51.87466 7.61982 1171 ft 109 kts 200°
2026-04-20 18:17 51.86765 7.61498 1173 ft 108 kts 200°
2026-04-20 18:17 51.86071 7.61022 1172 ft 108 kts 200°
2026-04-20 18:18 51.85374 7.60574 1172 ft 108 kts 198°
2026-04-20 18:18 51.84661 7.60156 1170 ft 108 kts 196°
2026-04-20 18:18 51.83944 7.59774 1170 ft 108 kts 195°
2026-04-20 18:18 51.83229 7.59431 1169 ft 108 kts 193°
2026-04-20 18:19 51.82497 7.59119 1170 ft 108 kts 191°
2026-04-20 18:19 51.81767 7.58845 1167 ft 107 kts 188°
2026-04-20 18:19 51.81034 7.58606 1170 ft 107 kts 187°
2026-04-20 18:19 51.80290 7.58401 1167 ft 107 kts 185°
2026-04-20 18:20 51.79553 7.58235 1167 ft 106 kts 183°
2026-04-20 18:20 51.78816 7.58105 1166 ft 106 kts 181°
2026-04-20 18:20 51.78069 7.58010 1166 ft 106 kts 179°
2026-04-20 18:20 51.77336 7.57953 1165 ft 106 kts 178°
2026-04-20 18:21 51.76597 7.57931 1164 ft 105 kts 175°
2026-04-20 18:21 51.75864 7.57945 1163 ft 105 kts 174°
2026-04-20 18:21 51.75137 7.57995 1164 ft 105 kts 172°
2026-04-20 18:21 51.74413 7.58082 1164 ft 104 kts 171°
2026-04-20 18:22 51.73697 7.58204 1164 ft 104 kts 169°
2026-04-20 18:22 51.72971 7.58364 1164 ft 104 kts 166°
2026-04-20 18:22 51.72265 7.58559 1162 ft 104 kts 162°
2026-04-20 18:22 51.71559 7.58816 1160 ft 104 kts 161°
2026-04-20 18:23 51.70853 7.59112 1171 ft 103 kts 159°
2026-04-20 18:23 51.70167 7.59438 1187 ft 102 kts 157°
2026-04-20 18:23 51.69496 7.59795 1187 ft 103 kts 155°
2026-04-20 18:23 51.68814 7.60187 1184 ft 104 kts 159°
2026-04-20 18:24 51.68087 7.60099 1182 ft 107 kts 193°
2026-04-20 18:24 51.67361 7.59914 1185 ft 106 kts 184°
2026-04-20 18:24 51.66623 7.59809 1184 ft 106 kts 181°
2026-04-20 18:24 51.65890 7.59758 1182 ft 106 kts 177°
2026-04-20 18:25 51.65147 7.59795 1182 ft 105 kts 172°
2026-04-20 18:25 51.64412 7.59891 1183 ft 105 kts 171°
2026-04-20 18:25 51.63685 7.59994 1185 ft 105 kts 171°
2026-04-20 18:25 51.62967 7.60141 1187 ft 105 kts 166°
2026-04-20 18:26 51.62245 7.60305 1187 ft 105 kts 168°
2026-04-20 18:26 51.61517 7.60460 1187 ft 104 kts 168°
2026-04-20 18:26 51.60793 7.60609 1184 ft 105 kts 168°
2026-04-20 18:26 51.60068 7.60794 1186 ft 104 kts 165°
2026-04-20 18:27 51.59355 7.60999 1185 ft 104 kts 165°
2026-04-20 18:27 51.58643 7.61205 1185 ft 104 kts 165°
2026-04-20 18:27 51.57936 7.61417 1187 ft 104 kts 165°
2026-04-20 18:27 51.57229 7.61621 1113 ft 102 kts 165°
2026-04-20 18:28 51.56538 7.61825 1000 ft 99 kts 166°
2026-04-20 18:28 51.55896 7.62023 980 ft 89 kts 165°
2026-04-20 18:28 51.55297 7.62116 946 ft 84 kts 176°
2026-04-20 18:28 51.54709 7.62056 870 ft 84 kts 184°
2026-04-20 18:29 51.54124 7.62013 765 ft 85 kts 174°
2026-04-20 18:29 51.53567 7.61909 734 ft 77 kts 208°
2026-04-20 18:29 51.53136 7.61395 713 ft 80 kts 222°
2026-04-20 18:29 51.52737 7.60770 727 ft 80 kts 225°
2026-04-20 18:30 51.52359 7.60103 713 ft 80 kts 228°
2026-04-20 18:30 51.52007 7.59460 717 ft 73 kts 230°
2026-04-20 18:30 51.51706 7.58785 666 ft 74 kts 235°
2026-04-20 18:30 51.51292 7.58473 641 ft 69 kts 148°
2026-04-20 18:31 51.50952 7.58943 628 ft 61 kts 115°
2026-04-20 18:31 51.50782 7.59538 618 ft 56 kts 90°
2026-04-20 18:31 51.50860 7.60072 666 ft 51 kts 47°
2026-04-20 18:31 51.51146 7.60492 778 ft 62 kts 33°
2026-04-20 18:32 51.51582 7.60962 801 ft 83 kts 39°
2026-04-20 18:32 51.51945 7.61777 821 ft 95 kts 55°
2026-04-20 18:32 51.52292 7.62661 857 ft 96 kts 55°
2026-04-20 18:32 51.52715 7.63440 809 ft 92 kts 29°
2026-04-20 18:33 51.53326 7.63353 735 ft 93 kts 338°
2026-04-20 18:33 51.53715 7.62643 723 ft 86 kts 271°
2026-04-20 18:33 51.53484 7.61726 623 ft 89 kts 233°
2026-04-20 18:33 51.53167 7.61014 660 ft 74 kts 233°
2026-04-20 18:34 51.52858 7.60359 646 ft 72 kts 232°
2026-04-20 18:34 51.52504 7.59769 679 ft 74 kts 220°
2026-04-20 18:34 51.52110 7.59212 685 ft 78 kts 220°
2026-04-20 18:34 51.51721 7.58578 659 ft 77 kts 207°
2026-04-20 18:35 51.51320 7.58856 621 ft 68 kts 110°
2026-04-20 18:35 51.51296 7.59586 563 ft 68 kts 64°
2026-04-20 18:35 51.51495 7.60279 473 ft 70 kts 58°
2026-04-20 18:35 51.51724 7.60928 421 ft 58 kts 62°
2026-04-20 18:36 51.51897 7.61408 404 ft 42 kts 59°
2026-04-20 18:36 51.52031 7.61788 399 ft 37 kts 60°
2026-04-20 18:36 51.52143 7.62104 395 ft 25 kts 59°
2026-04-20 18:36 51.52173 7.62321 392 ft 20 kts 144°
2026-04-20 18:37 51.52109 7.62381 393 ft 0 kts 149°
2026-04-20 18:37 51.52068 7.62397 395 ft 9 kts 199°
2026-04-20 18:38 51.52016 7.62289 399 ft 14 kts 242°
2026-04-20 18:38 51.51958 7.62122 403 ft 19 kts 240°
2026-04-20 18:38 51.51887 7.61921 407 ft 20 kts 241°
2026-04-20 18:38 51.51820 7.61732 409 ft 18 kts 240°
2026-04-20 18:39 51.51766 7.61578 413 ft 13 kts 239°
2026-04-20 18:39 51.51720 7.61448 416 ft 13 kts 240°
2026-04-20 18:39 51.51670 7.61305 419 ft 15 kts 239°
2026-04-20 18:39 51.51620 7.61161 421 ft 13 kts 240°
2026-04-20 18:40 51.51568 7.61052 423 ft 8 kts 189°
2026-04-20 18:40 51.51532 7.61061 426 ft 4 kts 174°
2026-04-20 18:40 51.51501 7.61031 429 ft 7 kts 235°
2026-04-20 18:40 51.51467 7.60934 432 ft 13 kts 239°
2026-04-20 18:41 51.51409 7.60771 436 ft 19 kts 239°
2026-04-20 18:41 51.51340 7.60574 440 ft 21 kts 239°
2026-04-20 18:41 51.51272 7.60379 444 ft 18 kts 239°
2026-04-20 18:41 51.51217 7.60223 447 ft 8 kts 241°
2026-04-20 18:42 51.51193 7.60164 447 ft 5 kts 227°
2026-04-20 18:42 51.51156 7.60181 450 ft 6 kts 120°
2026-04-20 18:42 51.51167 7.60243 451 ft 6 kts 53°
2026-04-20 18:42 51.51206 7.60334 449 ft 13 kts 60°
2026-04-20 18:43 51.51260 7.60483 445 ft 16 kts 60°
2026-04-20 18:43 51.51288 7.60577 443 ft 6 kts 78°
2026-04-20 18:43 51.51300 7.60638 444 ft 6 kts 58°
2026-04-20 18:43 51.51305 7.60703 444 ft 6 kts 143°
2026-04-20 18:44 51.51286 7.60747 445 ft 3 kts 83°
2026-04-20 18:44 51.51288 7.60771 445 ft 0 kts 53°